Regional Weather Roundup
Issued by NWS

Home | Current Version | Previous Version | Text Only | Print | Product List | Glossary On
Versions: 1 2 3 4 5 6 7 8 9 10 11 12 13 14 15 16 17 18 19 20 21 22 23 24 25 26 27 28 29 30 31 32 33 34 35 36 37 38 39 40 41 42 43 44 45 46 47 48 49 50
000
ASUS44 KBMX 250510
RWRAL

ALABAMA REGIONAL WEATHER ROUNDUP
NATIONAL WEATHER SERVICE BIRMINGHAM AL
1200 AM CDT TUE JUL 25 2017

NOTE: "FAIR" INDICATES FEW OR NO CLOUDS BELOW 12,000 FEET
WITH NO SIGNIFICANT WEATHER AND/OR OBSTRUCTIONS TO VISIBILITY.

THE REMARK "TC" DENOTES TEMPERATURE IN DEGREES CELSIUS.

ALZ001>011-014-016>018-020-250600-
NORTH ALABAMA

CITY           SKY/WX    TMP DP  RH WIND       PRES   REMARKS
MUSCLE SHOALS  CLOUDY    73  70  90 S5        30.03S
HUNTSVILLE     CLOUDY    75  75 100 CALM      30.03S
DECATUR        CLOUDY    73  73 100 CALM      30.04S
HALEYVILLE     NOT AVBL
GADSDEN        MOCLDY    73  73 100 CALM      30.05S
$$

ALZ012-013-022-023-030>036-040>044-250600-
WEST CENTRAL ALABAMA

CITY           SKY/WX    TMP DP  RH WIND       PRES   REMARKS
TUSCALOOSA     CLOUDY    77  76  96 CALM      30.03
DEMOPOLIS        N/A     76  73  93 SE3       30.03R
$$

ALZ015-024>026-033>036-041>044-250600-
CENTRAL ALABAMA

CITY           SKY/WX    TMP DP  RH WIND       PRES   REMARKS
BIRMINGHAM     CLOUDY    75  73  93 CALM      30.06S
MONTGOMERY     CLOUDY    79  73  82 CALM      30.04S
SHELBY CO ARPT CLOUDY    78  76  93 CALM      30.05R
MAXWELL AFB    CLOUDY    77  75  94 CALM      30.03S
GREENVILLE     CLOUDY    76  70  82 CALM      30.05R
SELMA          FAIR      77  73  88 S5        30.03R
PRATTVILLE     MOCLDY    76  75  98 CALM      30.03S
BESSEMER       NOT AVBL
TALLADEGA      FAIR      74  73  95 CALM      30.05S
PELL CITY      CLEAR     73  73 100 CALM      30.05S
MARION         FAIR      75  75  99 CALM      30.02F
SYLACAUGA      MOCLDY    76  71  86 CALM      30.05S
$$

ALZ019-021-028-029-037-038-045>048-250600-
EAST CENTRAL ALABAMA

CITY           SKY/WX    TMP DP  RH WIND       PRES   REMARKS
ANNISTON       MOCLDY    74  72  93 CALM      30.05R
ALEXANDER CITY CLOUDY    73  71  95 CALM      30.06S
AUBURN         PTCLDY    75  72  90 S3        30.06S
$$

ALZ051>064-250600-
SOUTHWEST ALABAMA

CITY           SKY/WX    TMP DP  RH WIND       PRES   REMARKS
MOBILE         CLEAR     74  72  93 SW3       30.09R
BROOKLEY FIELD CLEAR     76  75  97 CALM      30.08S
EVERGREEN      CLOUDY    75  72  90 SW3       30.05F
$$

ALZ049-050-065>069-250600-
SOUTHEAST ALABAMA

CITY           SKY/WX    TMP DP  RH WIND       PRES   REMARKS
DOTHAN         CLEAR     77  76  96 SW6       30.08S
OZARK          PTCLDY    77  75  93 SW7       30.04S
TROY           CLOUDY    75  74  96 W3        30.06R
EUFAULA        MOCLDY    76  75  97 CALM      30.03S
$$



USA.gov is the U.S. government's official web portal to all federal, state and local government web resources and services.